Henderson, KY

1:42 AM CDT on September 15, 2019 (GMT -0500)
Henderson City-County

Weather History for KEHR - May, 2019

Change the Weather History Date:

Wednesday, May 22, 2019

  Actual Average Record
Temperature  
Mean Temperature 73 °F -  
Max Temperature 82 °F 78 °F 91 °F (1939)
Min Temperature 64 °F 57 °F 42 °F (2002)
Cooling Degree Days 8    
Growing Degree Days 23 (Base 50)    
Moisture  
Dew Point 66 °F    
Average Humidity 81    
Maximum Humidity 96    
Minimum Humidity 65    
Precipitation  
Precipitation 0.12 in - - ()
Sea Level Pressure  
Sea Level Pressure 29.95 in    
Wind  
Wind Speed 8 mph (South)    
Max Wind Speed 22 mph    
Max Gust Speed 25 mph    
Visibility 10 miles    
Events Rain    
Averages and records for this station are not official NWS values.
T = Trace of Precipitation, MM = Missing Value Source: NWS Daily Summary

Daily Weather History Graph

Daily Weather History Graph

Search for Another Location

Airport or City:

Astronomy

May. 22, 2019 Rise Set
Actual Time 5:35 AM CDT 7:59 PM CDT
Civil Twilight 5:05 AM CDT 8:29 PM CDT
Nautical Twilight 4:28 AM CDT 9:06 PM CDT
Astronomical Twilight 3:48 AM CDT 9:47 PM CDT
Moon 11:42 PM CDT (5/22) 8:44 AM CDT (5/22)
Length of Visible Light 15h 23m
Length of Day
14h 23m
Waning Gibbous, 85% of the Moon is Illuminated
May 22
Waning Gibbous
May 26
Last Quarter
Jun 3
New
Jun 10
First Quarter
Jun 17
Full

Hourly Weather History & Observations

Time (CDT) Temp. Heat Index Dew Point Humidity Pressure Visibility Wind Dir Wind Speed Gust Speed Precip Events Conditions
12:56 AM 73.9 °F - 64.9 °F 73% 29.81 in 10.0 mi SE 5.8 mph - N/A   Clear
1:56 AM 75.0 °F - 64.9 °F 71% 29.84 in 10.0 mi WNW 21.9 mph 25.3 mph N/A   Clear
2:56 AM 66.9 °F - 62.1 °F 84% 29.84 in 10.0 mi Variable 3.5 mph - N/A   Clear
3:56 AM 66.9 °F - 62.1 °F 84% 29.88 in 10.0 mi NW 8.1 mph - N/A   Mostly Cloudy
4:56 AM 66.0 °F - 61.0 °F 84% 29.89 in 10.0 mi NNE 4.6 mph - N/A   Partly Cloudy
5:43 AM 66.2 °F - 60.8 °F 83% 29.93 in 10.0 mi Calm Calm - N/A   Mostly Cloudy
5:56 AM 66.0 °F - 62.1 °F 87% 29.90 in 10.0 mi ENE 4.6 mph - N/A   Scattered Clouds
6:56 AM 66.0 °F - 61.0 °F 84% 29.93 in 10.0 mi Calm Calm - 0.00 in   Scattered Clouds
7:07 AM 66.2 °F - 60.8 °F 83% 29.94 in 10.0 mi Calm Calm - 0.00 in Rain Light Rain
7:56 AM 64.9 °F - 62.1 °F 90% 29.96 in 8.0 mi Calm Calm - 0.01 in Rain Light Rain
8:56 AM 64.0 °F - 62.1 °F 93% 29.96 in 10.0 mi East 5.8 mph - 0.04 in Rain Light Rain
9:22 AM 64.4 °F - 62.6 °F 94% 29.99 in 8.0 mi SE 3.5 mph - 0.00 in Rain Light Rain
9:49 AM 64.4 °F - 62.6 °F 94% 29.98 in 10.0 mi Variable 3.5 mph - 0.05 in Rain Light Rain
9:56 AM 64.0 °F - 63.0 °F 96% 29.99 in 10.0 mi ESE 4.6 mph - 0.06 in Rain Light Rain
10:56 AM 66.9 °F - 63.0 °F 87% 29.98 in 10.0 mi Calm Calm - 0.00 in   Overcast
11:56 AM 68.0 °F - 64.9 °F 90% 29.99 in 10.0 mi SSE 6.9 mph - 0.01 in   Mostly Cloudy
12:56 PM 72.0 °F - 66.9 °F 84% 29.98 in 10.0 mi South 12.7 mph - N/A   Scattered Clouds
1:56 PM 75.9 °F - 69.1 °F 79% 29.97 in 10.0 mi South 11.5 mph 19.6 mph N/A   Partly Cloudy
2:16 PM 77.0 °F - 69.8 °F 78% 29.98 in 10.0 mi SSW 12.7 mph - N/A   Mostly Cloudy
2:56 PM 79.0 °F - 71.1 °F 77% 29.97 in 10.0 mi SW 15.0 mph - N/A   Mostly Cloudy
3:08 PM 78.8 °F - 69.8 °F 74% 29.97 in 10.0 mi SW 17.3 mph - N/A   Scattered Clouds
3:23 PM 80.6 °F 84.6 °F 71.6 °F 74% 29.98 in 10.0 mi SSW 13.8 mph - N/A   Mostly Cloudy
3:41 PM 80.6 °F 83.9 °F 69.8 °F 70% 29.97 in 10.0 mi SW 16.1 mph - N/A   Scattered Clouds
3:56 PM 82.0 °F 85.9 °F 70.0 °F 67% 29.96 in 10.0 mi SW 11.5 mph - N/A   Partly Cloudy
4:56 PM 82.0 °F 85.5 °F 69.1 °F 65% 29.98 in 10.0 mi SSW 15.0 mph - N/A   Clear
5:56 PM 82.9 °F 87.0 °F 70.0 °F 65% 29.97 in 10.0 mi SSW 11.5 mph - N/A   Partly Cloudy
6:56 PM 81.0 °F 84.9 °F 71.1 °F 72% 29.98 in 10.0 mi South 11.5 mph - N/A   Clear
7:56 PM 77.0 °F - 70.0 °F 79% 29.99 in 10.0 mi SSE 5.8 mph - N/A   Clear
8:56 PM 77.0 °F - 70.0 °F 79% 29.99 in 10.0 mi SE 4.6 mph - N/A   Clear
9:56 PM 75.0 °F - 70.0 °F 84% 30.00 in 10.0 mi SSE 6.9 mph - N/A   Clear
10:56 PM 75.0 °F - 70.0 °F 84% 30.00 in 10.0 mi SSE 5.8 mph - N/A   Clear
11:56 PM 75.9 °F - 70.0 °F 82% 30.01 in 10.0 mi South 8.1 mph - N/A   Clear